Stations météo

réclame
Mon MeteoGroup
Putbus, Allemagne (10093): Température de l'air & dewpoint: 16.10.2019 11:00:00 - 22.10.2019 11:00:00 (CEST)Putbus, Allemagne (10093): Température de l'air 5cm & Température de l'air -5cm: 16.10.2019 11:00:00 - 22.10.2019 11:00:00 (CEST)Putbus, Allemagne (10093): Température de l'air -20cm & Température de l'air -100cm: 16.10.2019 11:00:00 - 22.10.2019 11:00:00 (CEST)Putbus, Allemagne (10093): Vitesse du vent & gusts: 16.10.2019 11:00:00 - 22.10.2019 11:00:00 (CEST)Putbus, Allemagne (10093): Direction du vent: 16.10.2019 11:00:00 - 22.10.2019 11:00:00 (CEST)Putbus, Allemagne (10093): reduced air pressure: 16.10.2019 11:00:00 - 22.10.2019 11:00:00 (CEST)Putbus, Allemagne (10093): visibility: 16.10.2019 11:00:00 - 22.10.2019 11:00:00 (CEST)Putbus, Allemagne (10093): Ensoleillement: 16.10.2019 11:00:00 - 22.10.2019 11:00:00 (CEST)Putbus, Allemagne (10093): Quantités de précipitations: 16.10.2019 11:00:00 - 22.10.2019 11:00:00 (CEST)
Date & Time tt [°C] td [°C] tt 5cm [°C] tt -5cm [°C] tt -20cm [°C] tt -100cm [°C] ff [km/h] ff [knt] fx [km/h] fx [knt] dd ppp [hPa] vv [km] sd [min] rr [mm]
22.10.2019 11:00:00 - - - - - - - - - - - - - - -
22.10.2019 10:00:00 11,6 9,2 12,3 10,6 11,6 12,9 12 7 21 11 SW 1021,6 23 60 0,0
22.10.2019 09:00:00 10,3 9,1 9,2 10,2 11,7 12,9 12 7 19 11 SW 1021,6 15 34 0,0
22.10.2019 08:00:00 10,2 9,4 9,4 10,6 11,8 12,9 12 6 16 9 WSW 1021,2 11 0 0,0
22.10.2019 07:00:00 10,4 10,1 9,6 10,8 11,9 12,9 11 6 21 11 WSW 1020,6 2,3 0 0,0
22.10.2019 06:00:00 11,3 11,2 11,1 11,1 11,9 12,9 15 8 21 11 WSW 1020,4 0,3 0 0,0
22.10.2019 05:00:00 11,4 11,1 11,3 10,7 12,0 12,9 8 5 15 8 SW 1020,5 2,4 0 0,0
22.10.2019 04:00:00 11,2 11,1 10,4 10,8 12,1 12,9 8 5 14 8 SW 1020,5 1,9 0 0,0
22.10.2019 03:00:00 10,9 10,9 10,0 11,1 12,3 12,9 7 4 11 6 SW 1020,5 0,3 0 0,0
22.10.2019 02:00:00 10,1 9,9 8,8 11,1 12,4 12,9 5 3 10 5 S 1020,4 0,2 0 0,0
22.10.2019 01:00:00 11,4 11,2 10,9 11,3 12,6 12,9 9 5 16 9 SSW 1020,3 0,1 0 0,0
22.10.2019 00:00:00 11,8 11,5 9,7 11,5 12,7 12,9 7 4 12 6 SW 1019,9 1,0 0 0,0
21.10.2019 23:00:00 12,1 11,6 9,5 12,2 12,8 12,9 10 5 13 7 WSW 1019,7 2,5 0 0,0
21.10.2019 22:00:00 13,2 12,3 12,5 12,8 12,8 12,9 9 5 24 13 W 1020,0 3,6 0 0,0
21.10.2019 21:00:00 13,6 12,5 13,3 12,8 12,9 12,9 16 9 24 13 WSW 1019,7 4,5 0 0,0
21.10.2019 20:00:00 13,1 12,4 12,7 12,8 12,9 12,9 13 7 18 10 WSW 1019,2 3,6 0 0,0
21.10.2019 19:00:00 13,3 12,6 12,6 13,1 13,0 12,9 7 4 17 9 WSW 1018,3 3,8 0 0,0
21.10.2019 18:00:00 13,0 12,3 12,5 13,5 13,0 12,9 8 5 15 8 SSW 1017,9 4,5 0 0,0
21.10.2019 17:00:00 13,2 12,3 13,0 13,9 12,9 12,9 5 3 13 7 SE 1017,4 7 0 0,0
21.10.2019 16:00:00 13,4 12,1 13,7 14,1 12,7 12,9 6 3 18 10 SE 1018,3 9 0 0,0
21.10.2019 15:00:00 13,4 12,3 13,9 14,2 12,6 12,9 11 6 22 12 ESE 1018,1 10 0 0,0
21.10.2019 14:00:00 13,7 12,1 14,6 14,2 12,3 12,9 13 7 23 13 E 1018,0 17 0 0,0
21.10.2019 13:00:00 13,6 12,1 14,6 13,7 12,1 12,9 12 7 29 16 E 1017,9 18 0 0,0
21.10.2019 12:00:00 13,7 11,7 15,2 13,2 11,9 12,9 17 9 33 18 E 1017,9 35 11 0,0
21.10.2019 11:00:00 13,2 11,1 13,8 12,2 11,8 12,9 16 8 31 17 E 1017,5 50 4 0,0
21.10.2019 10:00:00 12,8 10,7 12,4 11,6 11,8 12,9 15 8 29 16 E 1017,5 58 0 0,0
21.10.2019 09:00:00 12,5 10,9 12,1 11,3 11,8 12,9 15 8 28 15 E 1017,1 41 0 0,0
21.10.2019 08:00:00 12,0 10,3 11,0 11,1 11,9 12,9 15 8 28 15 ENE 1016,5 48 0 0,0
21.10.2019 07:00:00 11,9 9,9 11,3 11,1 11,9 12,9 19 10 32 17 ENE 1016,1 61 0 0,0
21.10.2019 06:00:00 11,1 9,9 10,6 11,1 12,0 12,9 11 6 22 12 NE 1015,8 75 0 0,0
21.10.2019 05:00:00 11,1 9,6 10,7 11,3 12,1 12,9 13 7 26 14 NE 1015,9 66 0 0,0
21.10.2019 04:00:00 10,9 9,1 10,3 11,4 12,2 12,9 15 8 23 13 NNE 1015,7 75 0 0,0
21.10.2019 03:00:00 11,1 9,2 10,6 11,6 12,2 12,9 16 9 23 13 NNE 1015,6 63 0 0,0
21.10.2019 02:00:00 11,4 10,3 11,1 11,7 12,3 12,9 15 8 25 14 NNE 1014,4 27 0 0,0
21.10.2019 01:00:00 11,3 10,1 10,9 11,8 12,4 12,9 13 7 21 12 ENE 1014,1 34 0 0,1
21.10.2019 00:00:00 11,2 10,5 11,0 12,0 12,4 12,9 10 5 16 9 NE 1014,1 22 0 0,4
20.10.2019 23:00:00 11,6 10,9 11,3 12,2 12,5 12,9 9 5 15 8 NNE 1014,3 15 0 0,1
20.10.2019 22:00:00 11,8 10,9 11,5 12,4 12,5 12,9 10 6 16 9 NNE 1014,0 29 0 0,7
20.10.2019 21:00:00 12,2 11,7 12,0 12,6 12,6 12,9 10 5 15 8 N 1013,4 9 0 0,1
20.10.2019 20:00:00 12,2 11,6 12,1 12,7 12,6 12,9 5 3 8 4 N 1013,5 9 0 0,3
20.10.2019 19:00:00 12,3 11,7 12,2 12,9 12,5 12,9 4 2 6 3 NNW 1013,3 7 0 0,0
20.10.2019 18:00:00 12,5 11,7 12,3 13,2 12,5 12,9 2 1 6 3 SSE 1012,7 12 0 0,0
20.10.2019 17:00:00 12,7 11,7 12,7 13,5 12,3 13,0 0 0 9 5 N 1012,1 15 0 0,0
20.10.2019 16:00:00 12,7 11,7 12,9 13,5 12,2 13,0 6 3 10 5 SSE 1012,0 15 0 0,0
20.10.2019 15:00:00 12,8 11,8 12,9 13,2 12,0 13,0 2 1 10 6 WSW 1011,8 25 0 0,0
20.10.2019 14:00:00 12,5 11,7 12,8 13,1 11,8 13,0 6 3 12 6 SSW 1011,7 10 0 0,0
20.10.2019 13:00:00 12,3 11,5 12,6 12,9 11,6 13,0 5 3 13 7 S 1011,4 9 0 0,8
20.10.2019 12:00:00 12,5 11,6 12,7 12,4 11,5 13,0 3 2 11 6 SW 1011,5 3,2 0 0,1
20.10.2019 11:00:00 12,1 11,1 12,3 11,6 11,4 13,0 6 3 14 8 SW 1011,2 25 0 0,2
20.10.2019 10:00:00 11,5 10,7 11,3 11,1 11,4 13,0 9 5 15 8 SSW 1010,9 27 0 0,1
20.10.2019 09:00:00 11,4 10,5 11,1 10,7 11,4 13,0 8 4 13 7 SSW 1010,2 14 0 0,1
20.10.2019 08:00:00 11,2 10,2 10,6 10,6 11,4 13,0 6 4 11 6 S 1009,6 22 0 0,0
20.10.2019 07:00:00 11,0 9,9 10,1 10,6 11,5 13,0 6 3 16 9 S 1008,9 33 0 0,0
20.10.2019 06:00:00 11,5 10,0 10,9 10,6 11,5 13,0 8 5 16 8 SW 1008,8 45 0 0,0
20.10.2019 05:00:00 11,4 10,1 10,6 10,6 11,5 13,0 9 5 16 8 SSW 1008,7 39 0 0,0
20.10.2019 04:00:00 11,6 10,4 10,6 10,7 11,6 13,0 8 4 17 9 S 1008,5 48 0 0,0
20.10.2019 03:00:00 11,8 10,4 11,0 10,9 11,6 13,0 10 5 18 10 S 1008,3 47 0 0,0
20.10.2019 02:00:00 12,0 10,5 11,4 11,0 11,7 13,0 10 6 24 13 S 1008,3 55 0 0,0
20.10.2019 01:00:00 12,1 10,5 11,6 11,0 11,7 13,0 14 7 27 14 S 1008,4 48 0 0,0
20.10.2019 00:00:00 12,0 10,4 11,2 11,0 11,7 13,0 12 7 26 14 S 1008,1 55 0 0,0
19.10.2019 23:00:00 11,9 10,5 11,0 10,8 11,8 13,0 13 7 26 14 S 1008,0 36 0 0,0
19.10.2019 22:00:00 12,1 10,7 10,8 10,8 12,0 13,0 12 6 22 12 S 1008,0 46 0 0,0
19.10.2019 21:00:00 11,9 10,7 10,8 10,8 12,1 13,0 10 5 16 9 S 1008,2 36 0 0,0
19.10.2019 20:00:00 11,6 10,3 9,9 11,3 12,2 13,0 7 4 18 10 SSE 1008,3 45 0 0,0
19.10.2019 19:00:00 12,2 10,0 10,4 11,9 12,3 13,0 7 4 16 9 SE 1008,2 57 0 0,0
19.10.2019 18:00:00 12,6 9,8 11,0 12,7 12,2 13,0 6 3 16 9 SSE 1008,3 72 0 0,0
19.10.2019 17:00:00 13,4 9,3 12,7 13,3 12,1 13,0 9 5 28 15 S 1007,9 58 1 0,0
19.10.2019 16:00:00 14,1 8,8 14,0 13,9 11,8 13,0 13 7 25 14 S 1008,4 49 56 0,0
19.10.2019 15:00:00 13,9 9,2 15,0 13,6 11,5 13,0 13 7 26 14 S 1008,5 44 60 0,0
19.10.2019 14:00:00 13,6 8,6 15,6 13,1 11,2 13,0 16 9 29 16 S 1008,9 45 60 0,0
19.10.2019 13:00:00 12,3 8,4 13,8 11,8 10,9 13,0 11 6 29 15 S 1009,2 37 47 0,0
19.10.2019 12:00:00 11,8 8,0 12,8 10,8 10,8 13,0 14 8 27 15 S 1009,2 64 28 0,0
19.10.2019 11:00:00 10,5 7,4 10,4 9,9 10,8 13,0 12 7 29 16 S 1009,4 59 0 0,0
19.10.2019 10:00:00 10,3 7,1 10,0 9,3 10,8 13,0 17 9 27 15 S 1009,3 66 0 0,0
19.10.2019 09:00:00 9,6 7,0 8,9 8,8 10,9 13,0 14 8 26 14 S 1009,6 60 0 0,0
19.10.2019 08:00:00 9,3 6,8 8,4 8,6 11,1 13,0 14 8 23 12 S 1009,4 65 0 0,0
19.10.2019 07:00:00 8,8 6,4 7,4 8,7 11,3 13,0 13 7 28 15 SSW 1009,0 67 0 0,0
19.10.2019 06:00:00 9,1 6,5 7,9 8,9 11,5 13,0 14 8 31 17 SSW 1009,0 75 0 0,0
19.10.2019 05:00:00 9,2 6,5 7,9 9,0 11,7 13,0 16 8 31 17 SSW 1008,7 67 0 0,0
19.10.2019 04:00:00 9,3 6,6 7,9 9,2 12,0 13,0 15 8 29 16 SSW 1008,6 68 0 0,0
19.10.2019 03:00:00 9,2 6,8 7,7 9,5 12,2 13,0 13 7 30 16 SSW 1008,5 61 0 0,0
19.10.2019 02:00:00 9,5 6,8 7,7 9,9 12,5 13,0 16 9 28 15 SSW 1008,4 69 0 0,0
19.10.2019 01:00:00 9,7 7,1 8,0 10,3 12,8 13,0 16 8 26 14 SW 1008,2 69 0 0,0
19.10.2019 00:00:00 10,2 7,3 8,5 10,9 13,1 13,0 16 9 32 17 SW 1007,8 75 0 0,0
18.10.2019 23:00:00 10,7 7,7 9,0 11,6 13,3 13,0 18 10 36 19 SW 1007,3 66 0 0,0
18.10.2019 22:00:00 11,0 8,9 9,9 12,4 13,5 13,0 14 8 28 15 SSW 1006,8 75 0 0,2
18.10.2019 21:00:00 10,4 9,3 10,2 12,9 13,6 13,0 8 4 26 14 S 1005,9 46 0 0,3
18.10.2019 20:00:00 10,6 8,9 10,1 13,6 13,7 13,0 26 14 65 35 WSW 1006,8 8 0 0,4
18.10.2019 19:00:00 14,4 12,7 13,7 14,0 13,8 13,0 9 5 21 11 SSE 1005,1 50 0 0,0
18.10.2019 18:00:00 14,4 12,8 13,5 14,9 13,7 13,0 10 5 26 14 SSE 1005,2 32 38 0,0
18.10.2019 17:00:00 15,4 12,6 16,6 15,0 13,6 13,0 13 7 25 14 S 1005,7 40 18 0,0
18.10.2019 16:00:00 14,5 12,7 14,3 15,3 13,4 13,0 7 4 19 10 SSE 1006,3 32 0 0,0
18.10.2019 15:00:00 14,7 12,4 15,1 15,8 13,2 13,0 10 6 22 12 S 1007,0 38 30 0,0
18.10.2019 14:00:00 14,8 12,5 15,5 15,3 12,9 13,0 16 9 25 13 S 1007,8 28 28 0,0
18.10.2019 13:00:00 13,6 12,4 14,3 14,4 12,8 13,0 8 4 24 13 S 1008,6 15 8 0,0
18.10.2019 12:00:00 13,4 12,4 13,9 13,7 12,6 13,0 12 7 21 12 S 1009,1 13 0 0,0
18.10.2019 11:00:00 13,4 12,5 13,8 13,3 12,5 13,0 11 6 22 12 S 1009,3 18 0 0,0
18.10.2019 10:00:00 12,8 12,3 13,0 12,6 12,5 13,0 11 6 21 12 S 1009,3 7 0 0,0
18.10.2019 09:00:00 12,4 12,0 12,4 12,4 12,5 13,0 10 5 20 11 S 1009,5 6 0 0,0
18.10.2019 08:00:00 12,3 11,9 12,3 12,3 12,5 13,0 9 5 19 10 S 1009,6 5 0 0,0
18.10.2019 07:00:00 12,3 12,0 12,3 12,2 12,5 13,0 8 5 17 9 SSE 1009,8 6 0 0,2
18.10.2019 06:00:00 12,5 12,2 12,3 12,2 12,5 13,0 6 4 16 9 S 1010,2 4,4 0 1,5
18.10.2019 05:00:00 12,5 12,0 12,3 12,2 12,6 13,0 9 5 22 12 S 1010,6 7 0 1,5
18.10.2019 04:00:00 12,7 12,1 12,3 12,1 12,6 13,0 10 5 20 11 S 1011,0 8 0 0,8
18.10.2019 03:00:00 12,5 11,9 12,0 12,1 12,7 13,0 8 4 13 7 SSE 1011,0 20 0 0,0
18.10.2019 02:00:00 12,5 12,0 11,7 12,1 12,8 13,0 7 4 13 7 S 1011,5 19 0 0,0
18.10.2019 01:00:00 12,5 12,0 12,0 12,1 12,9 13,0 8 5 14 8 S 1011,9 12 0 0,0
18.10.2019 00:00:00 12,5 11,8 10,2 12,6 13,0 13,0 5 3 11 6 S 1012,0 14 0 0,0
17.10.2019 23:00:00 13,5 12,3 12,7 12,9 13,0 13,0 8 4 12 7 SSW 1012,0 30 0 0,0
17.10.2019 22:00:00 13,6 12,4 12,8 13,1 13,1 13,0 8 5 19 11 SSW 1012,2 37 0 0,0
17.10.2019 21:00:00 14,1 12,4 13,7 13,3 13,1 13,0 12 6 20 11 SSW 1012,0 47 0 0,0
17.10.2019 20:00:00 14,2 12,3 13,7 13,4 13,1 13,0 9 5 16 8 SSW 1011,9 53 0 0,0
17.10.2019 19:00:00 14,3 12,3 13,8 13,7 13,1 13,0 9 5 18 10 SSW 1011,7 54 0 0,0
17.10.2019 18:00:00 14,5 12,4 14,2 14,0 13,0 13,0 12 6 21 11 SW 1011,4 56 0 0,0
17.10.2019 17:00:00 14,9 12,3 14,8 14,4 12,9 13,0 10 5 18 10 SW 1011,1 54 0 0,0
17.10.2019 16:00:00 14,9 12,1 14,9 14,5 12,7 13,0 11 6 24 13 SW 1010,8 63 0 0,0
17.10.2019 15:00:00 15,0 12,1 15,3 14,5 12,5 13,0 14 7 29 16 SW 1010,6 64 0 0,0
17.10.2019 14:00:00 15,0 12,3 15,4 14,4 12,2 13,0 13 7 30 16 SW 1010,3 57 0 0,0
17.10.2019 13:00:00 14,4 12,2 14,6 14,1 11,9 13,0 14 8 26 14 SSW 1010,3 52 1 0,0
17.10.2019 12:00:00 13,8 12,3 14,5 13,3 11,6 13,0 12 6 24 13 SSW 1010,3 53 0 0,0
17.10.2019 11:00:00 12,9 11,9 13,5 12,3 11,5 13,0 13 7 21 11 S 1010,2 24 0 0,1
17.10.2019 10:00:00 12,0 11,4 12,2 11,4 11,4 13,0 14 7 26 14 S 1010,2 4,5 0 0,3
17.10.2019 09:00:00 11,6 11,0 11,5 10,9 11,4 13,0 13 7 21 11 S 1009,9 9 0 0,7
17.10.2019 08:00:00 11,3 10,6 11,1 10,5 11,4 13,0 11 6 18 10 S 1009,4 7 0 0,0
17.10.2019 07:00:00 10,9 10,2 10,6 10,3 11,5 13,0 10 5 18 10 S 1009,3 16 0 0,0
17.10.2019 06:00:00 10,4 9,8 10,0 9,9 11,6 13,0 10 6 19 10 SSW 1009,6 11 0 0,0
17.10.2019 05:00:00 9,6 9,0 9,0 9,5 11,8 13,0 10 5 16 9 SSW 1009,7 8 0 0,0
17.10.2019 04:00:00 9,5 8,9 8,5 9,9 12,0 13,0 11 6 18 10 SSW 1009,8 7 0 0,0
17.10.2019 03:00:00 9,7 9,1 8,7 10,3 12,2 13,0 10 6 18 10 SSW 1009,8 6 0 0,0
17.10.2019 02:00:00 10,4 9,6 9,4 10,8 12,3 13,0 12 7 22 12 WSW 1009,7 9 0 0,0
17.10.2019 01:00:00 11,0 9,8 9,9 11,4 12,4 13,0 14 8 24 13 WSW 1009,2 10 0 0,0
17.10.2019 00:00:00 11,9 10,7 11,0 12,1 12,4 13,0 16 9 28 15 WSW 1008,9 8 0 0,0
16.10.2019 23:00:00 12,4 11,7 12,1 12,3 12,4 13,0 16 9 26 14 WSW 1008,8 3,9 0 0,3
16.10.2019 22:00:00 12,3 11,5 12,1 12,3 12,4 13,0 16 9 33 18 WSW 1008,4 11 0 0,0
16.10.2019 21:00:00 12,4 11,6 12,1 12,4 12,4 13,0 23 12 35 19 W 1007,7 18 0 0,4
16.10.2019 20:00:00 12,6 12,0 12,5 12,4 12,4 13,0 18 10 34 19 W 1007,2 3,6 0 1,1
16.10.2019 19:00:00 12,7 11,9 12,5 12,5 12,4 13,0 20 11 35 19 WNW 1006,7 12 0 0,7
16.10.2019 18:00:00 12,7 11,9 12,5 12,5 12,3 13,0 23 12 37 20 WNW 1006,1 5 0 0,3
16.10.2019 17:00:00 12,7 12,1 12,6 12,5 12,3 13,0 21 11 31 17 W 1005,6 9 0 0,3
16.10.2019 16:00:00 12,1 11,5 12,2 12,3 12,3 13,0 14 8 26 14 W 1005,5 11 0 3,5
16.10.2019 15:00:00 11,9 11,5 12,0 12,3 12,2 13,0 16 9 25 13 NW 1004,4 9 0 9,9
16.10.2019 14:00:00 11,8 11,4 12,0 12,5 12,2 13,0 11 6 22 12 WNW 1004,8 3,7 0 0,0
16.10.2019 13:00:00 11,7 11,3 12,1 12,5 12,1 13,0 14 8 25 14 NNW 1004,6 - 0 0,0
16.10.2019 12:00:00 11,9 11,6 12,2 12,5 11,9 13,0 16 9 - - WNW 1004,3 - 0 0,0
16.10.2019 11:00:00 12,3 11,9 12,9 12,5 11,7 13,0 - - - - - 1004,1 - 0 0,0

tt = Température de l'air
td = dewpoint
tt 5cm = Température de l'air 5cm
tt -5cm = Température de l'air -5cm
tt -20cm = Température de l'air -20cm
tt -100cm = Température de l'air -100cm
ff = Vitesse du vent
fx = gusts
dd = Direction du vent
ppp = reduced air pressure
vv = visibility
sd = Ensoleillement
rr = Quantités de précipitations

stations d'obs. à proximité